| time (UTC) | temp F | wind direction | speed knots | gust knots | rain 1hr in | rain 24hr in | rain mn in | humidity % | barometer mb |
| 20260504045637 | 58 | 0.0 | 0.0 | 0.00 | 0.00 | 0.00 | 97 | 1691.9 | |
| 20260504043636 | 56 | 0.0 | 0.0 | 0.00 | 0.00 | 0.00 | 99 | 1689.8 | |
| 20260504041636 | 55 | 0.0 | 0.0 | 0.00 | 0.00 | 0.00 | 99 | 1688.2 | |
| 20260504035636 | 54 | 0.0 | 0.0 | 0.00 | 0.00 | 0.00 | 99 | 1686.5 | |
| 20260504033635 | 54 | 0.0 | 0.0 | 0.00 | 0.00 | 0.00 | 99 | 1686.2 | |
| 20260504031635 | 54 | 0.0 | 0.0 | 0.00 | 0.00 | 0.00 | 98 | 1686.0 | |
| 20260504025635 | 54 | 0.0 | 0.0 | 0.00 | 0.00 | 0.00 | 97 | 1685.8 | |
| 20260504023634 | 53 | 0.0 | 0.0 | 0.00 | 0.00 | 0.00 | 96 | 1685.1 | |
| 20260504021634 | 53 | 0.0 | 0.0 | 0.00 | 0.00 | 0.00 | 96 | 1685.4 | |
| 20260504015634 | 54 | 0.0 | 0.0 | 0.00 | 0.00 | 0.00 | 95 | 1685.7 | |
| 20260504013633 | 54 | 0.0 | 0.0 | 0.00 | 0.00 | 0.00 | 95 | 1686.3 | |
| 20260504011633 | 55 | 0.0 | 0.0 | 0.00 | 0.00 | 0.00 | 95 | 1687.3 | |
| 20260504005633 | 55 | 0.0 | 0.0 | 0.00 | 0.00 | 0.00 | 95 | 1687.8 | |
| 20260504003632 | 55 | 0.0 | 0.0 | 0.00 | 0.00 | 0.00 | 94 | 1687.7 | |
| 20260504001632 | 55 | 0.0 | 0.0 | 0.00 | 0.00 | 0.00 | 93 | 1687.7 | |
| 20260503235632 | 56 | 0.0 | 0.0 | 0.00 | 0.00 | 0.00 | 93 | 1688.9 | |
| 20260503233631 | 56 | 0.0 | 0.0 | 0.00 | 0.00 | 0.00 | 92 | 1688.5 | |
| 20260503231631 | 56 | 0.0 | 0.0 | 0.00 | 0.00 | 0.00 | 92 | 1689.2 | |
| 20260503225631 | 56 | 0.0 | 0.0 | 0.00 | 0.00 | 0.00 | 92 | 1689.5 | |
| 20260503223631 | 56 | 0.0 | 0.0 | 0.00 | 0.00 | 0.00 | 91 | 1689.5 | |
| 20260503221630 | 56 | 0.0 | 0.0 | 0.00 | 0.00 | 0.00 | 91 | 1689.9 | |
| 20260503215630 | 56 | 0.0 | 0.0 | 0.00 | 0.00 | 0.00 | 89 | 1689.9 | |
| 20260503213630 | 56 | 0.0 | 0.0 | 0.00 | 0.00 | 0.00 | 88 | 1689.7 | |
| 20260503211629 | 57 | 0.0 | 0.0 | 0.00 | 0.00 | 0.00 | 87 | 1690.3 | |
| 20260503205629 | 57 | 0.0 | 0.0 | 0.00 | 0.00 | 0.00 | 87 | 1690.8 | |
| 20260503203629 | 57 | 0.0 | 0.0 | 0.00 | 0.00 | 0.00 | 85 | 1690.9 | |
| 20260503201628 | 57 | 0.0 | 0.0 | 0.00 | 0.00 | 0.00 | 84 | 1691.3 | |
| 20260503195628 | 58 | 0.0 | 0.0 | 0.00 | 0.00 | 0.00 | 83 | 1692.6 | |
| 20260503193628 | 58 | 0.0 | 0.0 | 0.00 | 0.00 | 0.00 | 81 | 1692.6 | |
| 20260503191627 | 59 | 0.0 | 0.0 | 0.00 | 0.00 | 0.00 | 80 | 1693.8 | |
| 20260503185627 | 60 | 0.0 | 0.0 | 0.00 | 0.00 | 0.00 | 78 | 1695.5 | |
| 20260503183627 | 62 | 0.0 | 0.0 | 0.00 | 0.00 | 0.00 | 78 | 1697.8 | |
| 20260503181626 | 63 | 0.0 | 0.0 | 0.00 | 0.00 | 0.00 | 78 | 1698.7 | |
| 20260503175626 | 63 | 0.0 | 0.0 | 0.00 | 0.00 | 0.00 | 78 | 1699.0 | |
| 20260503173626 | 63 | 0.0 | 0.0 | 0.00 | 0.00 | 0.00 | 78 | 1699.7 | |
| 20260503171625 | 65 | 0.0 | 0.0 | 0.00 | 0.00 | 0.00 | 78 | 1701.7 | |
| 20260503081617 | 64 | 0.0 | 0.0 | 0.00 | 0.00 | 0.00 | 72 | 1700.3 | |
| 20260503071616 | 60 | 0.0 | 0.0 | 0.00 | 0.00 | 0.00 | 74 | 1695.3 | |
| 20260503053615 | 57 | 0.0 | 0.0 | 0.00 | 0.00 | 0.00 | 86 | 1690.7 |